Location: Unspecified
(51.0000°N, 12.0000°E)
Time: 22:30:17
(UTC+02:00)

OTV 5 (USA 277) - Pass Details

Date: 26 April 2019
Orbit: 310 x 325 km, 54.5° (Epoch: 08 May)

Event Time Altitude Azimuth Distance (km) Brightness Sun altitude
Rises 22:05:22 0° 251° (WSW) 2,033 ? -13.9°
Reaches altitude 10° 22:07:19 10° 254° (WSW) 1,205 ? -14.2°
Maximum altitude 22:09:59 71° 338° (NNW) 334 ? -14.5°
Enters shadow 22:12:12 14° 63° (ENE) 1,023 ? -14.7°
